Total_Precipitation_Accumulation
0.00 0.00 0.00 0.00 0.00 0.00 0.00 0.00 0.01 0.02 0.01 0.01 0.01 0.01 0.00 0.01 0.03 0.18 0.08 0.01 0.00 0.00 0.00 0.00 0.00 0.01 0.01 0.02 0.06 0.07 0.08 0.09 0.10 0.11 0.11 0.09 0.07 0.06 0.05 0.05 0.07 0.11 0.12 0.11 0.07 0.04 0.03 0.02 0.01
0.00 0.00 0.00 0.00 0.00 0.00 0.00 0.00 0.00 0.01 0.01 0.00 0.01 0.01 0.00 0.00 0.00 0.00 0.00 0.00 0.00 0.00 0.00 0.00 0.00 0.01 0.01 0.02 0.04 0.08 0.08 0.08 0.08 0.08 0.07 0.06 0.05 0.05 0.05 0.06 0.07 0.08 0.08 0.05 0.02 0.01 0.01 0.01 0.00
0.00 0.00 0.00 0.00 0.00 0.00 0.00 0.01 0.00 0.00 0.00 0.00 0.01 0.01 0.00 0.00 0.00 0.00 0.00 0.00 0.00 0.00 0.00 0.01 0.01 0.02 0.03 0.02 0.02 0.05 0.07 0.08 0.07 0.07 0.07 0.07 0.07 0.05 0.05 0.06 0.07 0.07 0.06 0.07 0.06 0.04 0.01 0.00 0.00
0.00 0.00 0.00 0.00 0.00 0.00 0.00 0.02 0.01 0.00 0.00 0.00 0.00 0.01 0.00 0.00 0.00 0.00 0.00 0.00 0.00 0.00 0.00 0.00 0.01 0.02 0.03 0.03 0.02 0.03 0.05 0.07 0.08 0.08 0.08 0.08 0.07 0.06 0.04 0.05 0.06 0.06 0.08 0.11 0.13 0.08 0.02 0.01 0.00
0.00 0.00 0.00 0.00 0.00 0.00 0.00 0.01 0.03 0.01 0.01 0.00 0.01 0.01 0.01 0.00 0.00 0.00 0.00 0.00 0.00 0.00 0.00 0.00 0.01 0.02 0.04 0.05 0.06 0.06 0.05 0.06 0.09 0.09 0.07 0.06 0.06 0.06 0.05 0.05 0.05 0.07 0.11 0.14 0.11 0.05 0.01 0.00 0.00
0.00 0.00 0.00 0.00 0.00 0.00 0.00 0.00 0.01 0.02 0.01 0.01 0.01 0.02 0.02 0.01 0.00 0.00 0.00 0.00 0.00 0.00 0.00 0.00 0.01 0.02 0.04 0.06 0.07 0.10 0.09 0.08 0.08 0.08 0.07 0.06 0.05 0.06 0.07 0.06 0.07 0.10 0.15 0.14 0.06 0.01 0.00 0.00 0.00
0.00 0.00 0.00 0.00 0.00 0.00 0.00 0.00 0.01 0.03 0.02 0.01 0.01 0.04 0.03 0.02 0.01 0.01 0.00 0.00 0.00 0.00 0.00 0.00 0.00 0.01 0.02 0.05 0.06 0.08 0.10 0.08 0.06 0.06 0.09 0.10 0.11 0.11 0.12 0.10 0.10 0.12 0.14 0.10 0.03 0.01 0.00 0.00 0.00
0.00 0.00 0.00 0.00 0.00 0.00 0.00 0.01 0.02 0.06 0.06 0.01 0.02 0.06 0.08 0.07 0.02 0.01 0.01 0.01 0.00 0.00 0.00 0.00 0.00 0.02 0.02 0.01 0.02 0.03 0.05 0.06 0.05 0.05 0.08 0.10 0.11 0.10 0.10 0.08 0.09 0.09 0.09 0.06 0.02 0.01 0.00 0.00 0.00
0.00 0.00 0.00 0.00 0.00 0.00 0.01 0.02 0.02 0.06 0.08 0.04 0.04 0.06 0.09 0.06 0.03 0.02 0.01 0.01 0.01 0.00 0.00 0.00 0.00 0.04 0.04 0.01 0.00 0.00 0.01 0.02 0.02 0.02 0.04 0.05 0.15 0.20 0.16 0.10 0.08 0.07 0.06 0.04 0.02 0.01 0.00 0.00 0.00
0.00 0.00 0.00 0.00 0.00 0.00 0.01 0.02 0.02 0.02 0.04 0.06 0.07 0.07 0.11 0.04 0.02 0.02 0.01 0.01 0.01 0.01 0.00 0.00 0.00 0.01 0.06 0.02 0.00 0.01 0.00 0.01 0.02 0.07 0.06 0.11 0.25 0.31 0.23 0.18 0.11 0.07 0.05 0.03 0.01 0.01 0.00 0.00 0.00
0.00 0.00 0.00 0.00 0.00 0.00 0.00 0.01 0.02 0.01 0.02 0.04 0.07 0.09 0.11 0.04 0.02 0.02 0.02 0.02 0.01 0.01 0.00 0.01 0.01 0.03 0.13 0.03 0.00 0.01 0.01 0.06 0.07 0.11 0.14 0.18 0.23 0.22 0.26 0.30 0.17 0.11 0.07 0.06 0.05 0.02 0.01 0.00 0.01
0.00 0.00 0.00 0.00 0.00 0.00 0.00 0.00 0.00 0.01 0.01 0.03 0.06 0.13 0.18 0.06 0.04 0.06 0.06 0.05 0.03 0.02 0.01 0.00 0.01 0.01 0.02 0.02 0.01 0.02 0.01 0.04 0.07 0.12 0.11 0.19 0.25 0.28 0.30 0.32 0.26 0.24 0.19 0.15 0.08 0.05 0.04 0.02 0.01
0.00 0.00 0.00 0.00 0.00 0.00 0.00 0.00 0.00 0.01 0.01 0.02 0.04 0.11 0.13 0.06 0.06 0.12 0.18 0.13 0.07 0.04 0.01 0.00 0.00 0.00 0.00 0.01 0.01 0.02 0.02 0.02 0.04 0.08 0.10 0.13 0.20 0.25 0.28 0.28 0.26 0.22 0.21 0.17 0.08 0.06 0.06 0.03 0.03
0.00 0.00 0.00 0.00 0.00 0.00 0.00 0.00 0.00 0.00 0.01 0.01 0.02 0.07 0.07 0.05 0.06 0.13 0.21 0.19 0.09 0.04 0.02 0.01 0.00 0.00 0.00 0.00 0.01 0.01 0.02 0.03 0.05 0.07 0.11 0.12 0.20 0.30 0.32 0.28 0.26 0.23 0.22 0.24 0.15 0.12 0.12 0.05 0.04
0.00 0.00 0.00 0.00 0.00 0.00 0.00 0.00 0.00 0.00 0.00 0.00 0.00 0.03 0.05 0.06 0.09 0.14 0.18 0.17 0.10 0.05 0.03 0.01 0.00 0.00 0.00 0.00 0.01 0.01 0.02 0.03 0.05 0.08 0.13 0.12 0.17 0.28 0.31 0.33 0.31 0.26 0.23 0.23 0.19 0.16 0.18 0.17 0.12
0.00 0.00 0.00 0.00 0.00 0.00 0.00 0.00 0.00 0.00 0.00 0.00 0.00 0.01 0.04 0.06 0.11 0.17 0.16 0.14 0.09 0.06 0.04 0.03 0.01 0.00 0.00 0.01 0.01 0.03 0.04 0.05 0.06 0.09 0.11 0.12 0.15 0.21 0.27 0.31 0.31 0.29 0.28 0.29 0.26 0.24 0.23 0.21 0.16
0.00 0.00 0.00 0.00 0.00 0.00 0.00 0.00 0.00 0.00 0.00 0.00 0.00 0.01 0.03 0.07 0.10 0.11 0.15 0.17 0.12 0.05 0.06 0.04 0.03 0.02 0.02 0.02 0.04 0.06 0.05 0.07 0.10 0.14 0.17 0.22 0.25 0.28 0.34 0.37 0.42 0.42 0.43 0.41 0.38 0.33 0.28 0.24 0.19
0.00 0.00 0.00 0.00 0.00 0.00 0.00 0.00 0.00 0.00 0.00 0.00 0.00 0.00 0.02 0.06 0.08 0.10 0.11 0.11 0.08 0.06 0.08 0.07 0.07 0.08 0.06 0.04 0.05 0.08 0.13 0.19 0.23 0.28 0.31 0.37 0.45 0.55 0.62 0.64 0.63 0.58 0.54 0.48 0.42 0.36 0.31 0.24 0.19
0.00 0.00 0.00 0.00 0.00 0.00 0.00 0.00 0.00 0.00 0.00 0.00 0.00 0.00 0.01 0.04 0.06 0.09 0.14 0.18 0.17 0.15 0.14 0.12 0.12 0.13 0.13 0.17 0.24 0.35 0.50 0.59 0.60 0.66 0.74 0.86 0.95 1.00 0.99 0.90 0.81 0.73 0.63 0.54 0.45 0.35 0.27 0.20 0.15
0.00 0.00 0.00 0.00 0.00 0.00 0.00 0.00 0.00 0.00 0.00 0.00 0.00 0.00 0.01 0.03 0.05 0.08 0.17 0.32 0.31 0.25 0.21 0.19 0.19 0.29 0.43 0.55 0.74 0.94 1.06 1.16 1.24 1.30 1.37 1.42 1.46 1.44 1.39 1.29 1.18 1.06 0.84 0.59 0.39 0.28 0.22 0.18 0.13
0.00 0.00 0.00 0.00 0.00 0.00 0.00 0.00 0.00 0.00 0.00 0.00 0.00 0.00 0.01 0.02 0.04 0.06 0.15 0.25 0.33 0.32 0.34 0.34 0.35 0.56 0.81 1.01 1.28 1.51 1.71 1.91 1.97 1.89 1.83 1.82 1.77 1.66 1.62 1.50 1.26 0.95 0.66 0.44 0.29 0.23 0.17 0.12 0.08
0.00 0.00 0.00 0.00 0.00 0.00 0.00 0.00 0.00 0.00 0.00 0.00 0.00 0.00 0.00 0.01 0.02 0.04 0.11 0.20 0.24 0.35 0.42 0.43 0.55 0.81 1.08 1.34 1.70 2.00 2.20 2.39 2.51 2.35 2.12 1.86 1.64 1.50 1.37 1.23 0.94 0.66 0.44 0.29 0.20 0.13 0.09 0.05 0.04
0.00 0.00 0.00 0.00 0.00 0.00 0.00 0.00 0.00 0.00 0.00 0.00 0.00 0.00 0.00 0.01 0.01 0.04 0.12 0.20 0.27 0.36 0.35 0.37 0.58 0.94 1.41 1.83 2.12 2.26 2.44 2.53 2.44 2.17 1.87 1.59 1.33 1.04 0.81 0.65 0.46 0.31 0.20 0.12 0.08 0.05 0.03 0.02 0.01
0.00 0.00 0.00 0.00 0.00 0.00 0.00 0.00 0.00 0.00 0.00 0.00 0.00 0.01 0.01 0.02 0.02 0.04 0.11 0.24 0.34 0.33 0.33 0.44 0.71 1.21 1.68 1.97 2.21 2.33 2.32 2.17 1.95 1.65 1.31 1.10 0.89 0.65 0.42 0.27 0.16 0.10 0.05 0.03 0.01 0.01 0.01 0.00 0.00
0.00 0.00 0.00 0.00 0.00 0.00 0.00 0.00 0.01 0.01 0.00 0.01 0.01 0.02 0.03 0.03 0.04 0.06 0.11 0.23 0.36 0.36 0.44 0.66 0.95 1.32 1.58 1.76 1.88 1.83 1.71 1.49 1.26 1.06 0.84 0.66 0.47 0.29 0.16 0.10 0.06 0.03 0.02 0.01 0.00 0.00 0.00 0.00 0.00
0.00 0.00 0.00 0.00 0.00 0.00 0.00 0.01 0.02 0.02 0.01 0.02 0.02 0.04 0.05 0.06 0.07 0.12 0.22 0.33 0.41 0.45 0.49 0.67 0.89 1.10 1.18 1.21 1.30 1.25 1.11 0.96 0.80 0.65 0.47 0.31 0.19 0.11 0.06 0.04 0.02 0.01 0.01 0.00 0.00 0.00 0.00 0.00 0.00
0.00 0.00 0.00 0.00 0.00 0.00 0.00 0.03 0.06 0.04 0.03 0.03 0.04 0.05 0.07 0.09 0.11 0.17 0.26 0.35 0.40 0.42 0.46 0.56 0.67 0.77 0.79 0.81 0.83 0.79 0.72 0.61 0.48 0.34 0.23 0.15 0.09 0.05 0.03 0.02 0.01 0.01 0.00 0.00 0.00 0.00 0.00 0.00 0.01
0.00 0.00 0.00 0.00 0.00 0.00 0.00 0.04 0.10 0.11 0.08 0.06 0.07 0.09 0.10 0.12 0.16 0.21 0.26 0.30 0.31 0.31 0.36 0.41 0.45 0.47 0.51 0.54 0.53 0.49 0.41 0.33 0.25 0.18 0.13 0.08 0.05 0.03 0.02 0.02 0.01 0.00 0.00 0.00 0.00 0.00 0.00 0.00 0.01
0.00 0.00 0.00 0.00 0.00 0.00 0.01 0.08 0.13 0.19 0.18 0.14 0.13 0.15 0.13 0.15 0.19 0.22 0.23 0.24 0.21 0.21 0.26 0.29 0.31 0.38 0.42 0.40 0.35 0.28 0.24 0.17 0.13 0.09 0.06 0.04 0.03 0.02 0.02 0.02 0.01 0.00 0.00 0.00 0.00 0.00 0.01 0.01 0.02
0.00 0.00 0.00 0.00 0.00 0.00 0.01 0.16 0.22 0.29 0.27 0.20 0.18 0.20 0.21 0.21 0.21 0.19 0.18 0.17 0.15 0.17 0.20 0.22 0.24 0.25 0.24 0.20 0.16 0.13 0.11 0.08 0.07 0.05 0.03 0.03 0.03 0.02 0.01 0.01 0.01 0.01 0.01 0.01 0.01 0.01 0.02 0.02 0.03